Regional Weather Roundup
Issued by NWS

Home | Current Version | Previous Version | Text Only | Print | Product List | Glossary On
Versions: 1 2 3 4 5 6 7 8 9 10 11 12 13 14 15 16 17 18 19 20 21 22 23 24 25 26 27 28 29 30 31 32 33 34 35 36 37 38 39 40 41 42 43 44 45 46 47 48 49 50
000
ASUS43 KMKX 282300
RWRWI

WISCONSIN REGIONAL WEATHER ROUNDUP
NATIONAL WEATHER SERVICE MILWAUKEE/SULLIVAN WI
600 PM CDT THU AUG 28 2014

NOTE: "FAIR" INDICATES FEW OR NO CLOUDS BELOW 12,000 FEET WITH NO
SIGNIFICANT WEATHER AND/OR OBSTRUCTIONS TO VISIBILITY.

WIZ001-002-006>008-014>016-023>028-290000-
NORTHWEST WISCONSIN

CITY           SKY/WX    TMP DP  RH WIND       PRES   REMARKS
SUPERIOR ARPT  CLOUDY    64  57  80 NE9       30.00F
ASHLAND        PTSUNNY   67  55  65 NE8       30.03F
HAYWARD        CLOUDY    70  59  68 S6        30.02F
SIREN          CLOUDY    70  60  70 SE6       30.00S
RICE LAKE      CLOUDY    68  61  77 SE9       30.03S
LADYSMITH      LGT RAIN  69  61  74 SE5       30.05S
EAU CLAIRE     LGT RAIN  68  65  90 E7        30.00F
MENOMONIE      CLOUDY    68  65  89 E9        30.00F
NEW RICHMOND   CLOUDY    68  62  82 E8        29.99F
OSCEOLA        CLOUDY    69  62  79 SE9       30.01S
$$

WIZ003>005-009-010-017-018-290000-
NORTH CENTRAL WISCONSIN

CITY           SKY/WX    TMP DP  RH WIND       PRES   REMARKS
WOODRUFF       CLOUDY    69  57  65 S9        30.06F
RHINELANDER    CLOUDY    67  57  70 S3        30.08F
EAGLE RIVER    CLOUDY    67  54  62 CALM      30.06F
LAND O LAKES   PTSUNNY   69  53  57 S3        30.07F
PHILLIPS       CLOUDY    68  59  72 SE7       30.04F
TOMAHAWK       CLOUDY    66  59  76 CALM      30.07F
MEDFORD        DRIZZLE   64  62  91 E5        30.05F
MERRILL        CLOUDY    68  61  78 SE6       30.06F
$$

WIZ029-030-035-036-043>047-290000-
CENTRAL WISCONSIN

CITY           SKY/WX    TMP DP  RH WIND       PRES   REMARKS
WAUSAU         LGT RAIN  66  62  87 E7        30.05F
MOSINEE        LGT RAIN  64  64 100 E6        30.07F
MARSHFIELD     LGT RAIN  68  64  87 E7        30.04F
STEVENS POINT  LGT RAIN  65  61  86 SE6       30.06S
WAUPACA        LGT RAIN  71  61  71 SE7       30.06S
WAUTOMA        NOT AVBL
WISC RAPIDS    LGT RAIN  68  64  87 SE5       30.06S
CAMP DOUGLAS   LGT RAIN  70  66  88 E9        30.03S
$$

WIZ011>013-019>022-031-037>040-048>050-290000-
NORTHEAST WISCONSIN

CITY           SKY/WX    TMP DP  RH WIND       PRES   REMARKS
ANTIGO         CLOUDY    65  59  80 S6        30.08F
STURGEON BAY   CLOUDY    63  54  72 SE7       30.11S
GREEN BAY      CLOUDY    66  56  70 SE8       30.08F
MANITOWOC      NOT AVBL
APPLETON       NOT AVBL
CLINTONVILLE   CLOUDY    68  59  73 SE6       30.07S
OSHKOSH        LGT RAIN  67  57  70 S10       30.08R
$$

WIZ032>034-041-042-053>061-290000-
SOUTHWEST WISCONSIN

CITY           SKY/WX    TMP DP  RH WIND       PRES   REMARKS
LA CROSSE      RAIN      68  65  90 SE6       29.99S FOG
SPARTA         DRIZZLE   67  64  89 E6        30.02S
VIROQUA        CLOUDY    67  66  96 SE8       30.02S
BOSCOBEL       CLOUDY    74  63  68 SE6       30.00F
PRAIRIE DU CHI CLOUDY    73  61  67 SE9       29.98F
PLATTEVILLE    FAIR      72  64  75 SE13      30.02F
$$

WIZ056-057-062-063-064-067-068-290000-
SOUTH CENTRAL WISCONSIN

CITY           SKY/WX    TMP DP  RH WIND       PRES   REMARKS
BARABOO/DELLS  CLOUDY    70  60  71 E8        30.04S
LONE ROCK      NOT AVBL
WATERTOWN      CLOUDY    68  56  66 E8        30.07S
MADISON        CLOUDY    71  57  61 SE14      30.05S
MIDDLETON      MOCLDY    73  57  58 SE13      30.05S
MONROE         LGT RAIN  70  61  73 E5        30.05R
JANESVILLE     MOSUNNY   72  55  56 E9        30.05F
$$

WIZ051-052-058>065-066-070>072-290000-
SOUTHEAST WISCONSIN

CITY           SKY/WX    TMP DP  RH WIND       PRES   REMARKS
MILWAUKEE      PTSUNNY   66  56  70 E8        30.08F
WAUKESHA       CLOUDY    66  52  59 E7        30.10S
MILWAUKEE/TIMM NOT AVBL
RACINE         PTSUNNY   68  57  68 E8        30.10S
BURLINGTON     PTSUNNY   66  55  67 E6        30.09R
KENOSHA        PTSUNNY   67  58  72 E8        30.09S
FOND DU LAC    CLOUDY    66  54  65 SE14      30.09R
SHEBOYGAN      CLOUDY    65  53  65 SE3       30.09F
WEST BEND      CLOUDY    64  50  59 E7        30.10R
JUNEAU         CLOUDY    66  56  71 E9        30.09S
$$

LSZ147-162-290000-
LAKE SUPERIOR

STATION/POSITION TIME  TEMP    WIND        PRES    WAVE
                       AIR SEA DIR/SP/G            HT/PER
                 (UTC) (F)     (DEG/KT/KT) (MB)    (FT/S)
W MID LAKE BUOY  2150   61 60   60/  6/  6 1017.5F   0
DEVILS ISLAND    2200   62      90/ 11/ 13 1017.0F
PORT WING        2200   65      30/ 11/ 13 1016.6
SAXON HARBOR     2200   66      50/ 11/ 13 1016.9F
$$

LMZ867-665-643>646-290000-
LAKE MICHIGAN

STATION/POSITION TIME  TEMP    WIND        PRES    WAVE
                       AIR SEA DIR/SP/G            HT/PER
                 (UTC) (F)     (DEG/KT/KT) (MB)    (FT/S)
N MID LAKE BUOY  2150   63 66  110/  6/  8 1020.1F   0
NORTHPORT PIER   2200   64     140/ 10/ 12 1019.6S
SISTER BAY       2211   66     180/ 10/ 13   N/A
KEWAUNEE LAKESHO 2200   65     160/  9/ 10 1018.8F
SHEBOYGAN LAKESH 2200   65 70  150/  6/  7 1019.5F
ATWATER BUOY     2200   67      90/  8/ 10 1019.8F
MILWAUKEE LAKESH 2200   67      80/  9/ 10   N/A
S MID LAKE BUOY  2150   69 69   50/ 12/ 12 1018.6F   1/ 3
KENOSHA   LAKESH 2200   68      80/ 11/ 12 1018.3F
$$

TC  - TEMPERATURE IN CELSIUS
VSB - VISIBILITY IN STATUTE MILES
WCI - WIND CHILL INDEX
HX  - HEAT INDEX




USA.gov is the U.S. government's official web portal to all federal, state and local government web resources and services.